| time (UTC) | temp C | wind direction | speed KPH | gust KPH | rain 1hr cm | rain 24hr cm | rain mn cm | humidity % | barometer mb |
| 20260503032627 | 12 | 308 | 6.4 | 6.4 | 0.00 | 0.00 | 0.00 | 38 | 1010.1 |
| 20260503032125 | 12 | 300 | 3.2 | 3.2 | 0.00 | 0.00 | 0.00 | 38 | 1009.9 |
| 20260503031622 | 12 | 290 | 3.2 | 3.2 | 0.00 | 0.00 | 0.00 | 38 | 1010.2 |
| 20260503031119 | 12 | 292 | 4.8 | 6.4 | 0.00 | 0.00 | 0.00 | 37 | 1010.3 |
| 20260503030615 | 12 | 295 | 9.7 | 12.9 | 0.00 | 0.00 | 0.00 | 36 | 1010.2 |
| 20260503030112 | 12 | 266 | 6.4 | 6.4 | 0.00 | 0.00 | 0.00 | 36 | 1010.1 |
| 20260503025609 | 12 | 299 | 4.8 | 6.4 | 0.00 | 0.00 | 0.00 | 36 | 1010.2 |
| 20260503025107 | 12 | 309 | 6.4 | 9.7 | 0.00 | 0.00 | 0.00 | 36 | 1010.1 |
| 20260503024603 | 12 | 313 | 3.2 | 4.8 | 0.00 | 0.00 | 0.00 | 36 | 1010.3 |
| 20260503024100 | 12 | 294 | 4.8 | 4.8 | 0.00 | 0.00 | 0.00 | 37 | 1010.0 |
| 20260503023557 | 12 | 294 | 1.6 | 3.2 | 0.00 | 0.00 | 0.00 | 38 | 1010.3 |
| 20260503023054 | 12 | 280 | 1.6 | 1.6 | 0.00 | 0.00 | 0.00 | 38 | 1010.2 |
| 20260503022550 | 12 | 295 | 1.6 | 3.2 | 0.00 | 0.00 | 0.00 | 39 | 1010.3 |
| 20260503022045 | 12 | 319 | 3.2 | 4.8 | 0.00 | 0.00 | 0.00 | 37 | 1010.3 |
| 20260503021542 | 12 | 298 | 3.2 | 4.8 | 0.00 | 0.00 | 0.00 | 37 | 1010.2 |
| 20260503021039 | 12 | 307 | 4.8 | 6.4 | 0.00 | 0.00 | 0.00 | 37 | 1010.3 |
| 20260503020536 | 12 | 299 | 4.8 | 4.8 | 0.00 | 0.00 | 0.00 | 38 | 1010.3 |
| 20260503020033 | 12 | 328 | 3.2 | 4.8 | 0.00 | 0.00 | 0.00 | 38 | 1010.2 |
| 20260503015529 | 12 | 306 | 3.2 | 4.8 | 0.00 | 0.00 | 0.00 | 37 | 1010.4 |
| 20260503015027 | 12 | 330 | 4.8 | 6.4 | 0.00 | 0.00 | 0.00 | 37 | 1010.4 |
| 20260503014523 | 13 | 311 | 6.4 | 6.4 | 0.00 | 0.00 | 0.00 | 37 | 1010.5 |
| 20260503014021 | 13 | 300 | 6.4 | 6.4 | 0.00 | 0.00 | 0.00 | 37 | 1010.5 |
| 20260503013518 | 13 | 294 | 8.0 | 11.3 | 0.00 | 0.00 | 0.00 | 37 | 1010.2 |
| 20260503013016 | 13 | 256 | 6.4 | 6.4 | 0.00 | 0.00 | 0.00 | 37 | 1010.2 |
| 20260503012513 | 13 | 280 | 8.0 | 12.9 | 0.00 | 0.00 | 0.00 | 38 | 1010.1 |
| 20260503012009 | 13 | 290 | 1.6 | 3.2 | 0.00 | 0.00 | 0.00 | 38 | 1010.2 |
| 20260503011506 | 13 | 283 | 3.2 | 3.2 | 0.00 | 0.00 | 0.00 | 38 | 1010.2 |
| 20260503011003 | 13 | 285 | 1.6 | 3.2 | 0.00 | 0.00 | 0.00 | 37 | 1010.4 |
| 20260503010459 | 13 | 307 | 3.2 | 3.2 | 0.00 | 0.00 | 0.00 | 38 | 1010.0 |
| 20260503005957 | 13 | 309 | 3.2 | 4.8 | 0.00 | 0.00 | 0.00 | 37 | 1010.2 |
| 20260503005454 | 13 | 294 | 4.8 | 6.4 | 0.00 | 0.00 | 0.00 | 37 | 1010.0 |
| 20260503004950 | 13 | 333 | 6.4 | 9.7 | 0.00 | 0.00 | 0.00 | 37 | 1009.9 |
| 20260503004447 | 13 | 316 | 1.6 | 1.6 | 0.00 | 0.00 | 0.00 | 37 | 1009.9 |
| 20260503003945 | 13 | 298 | 4.8 | 4.8 | 0.00 | 0.00 | 0.00 | 37 | 1009.7 |
| 20260503003441 | 13 | 327 | 3.2 | 3.2 | 0.00 | 0.00 | 0.00 | 38 | 1009.8 |
| 20260503002938 | 13 | 267 | 4.8 | 6.4 | 0.00 | 0.00 | 0.00 | 37 | 1009.4 |
| 20260503002436 | 13 | 165 | 8.0 | 12.9 | 0.00 | 0.00 | 0.00 | 38 | 1009.7 |
| 20260503001932 | 13 | 320 | 8.0 | 9.7 | 0.00 | 0.00 | 0.00 | 37 | 1009.5 |
| 20260503001429 | 14 | 295 | 3.2 | 4.8 | 0.00 | 0.00 | 0.00 | 37 | 1009.6 |
| 20260503000926 | 14 | 287 | 8.0 | 9.7 | 0.00 | 0.00 | 0.00 | 36 | 1009.5 |
| 20260503000423 | 14 | 287 | 4.8 | 4.8 | 0.00 | 0.00 | 0.00 | 36 | 1009.4 |
| 20260502235920 | 14 | 274 | 3.2 | 3.2 | 0.00 | 0.00 | 0.00 | 36 | 1009.5 |
| 20260502235417 | 14 | 304 | 4.8 | 6.4 | 0.00 | 0.00 | 0.00 | 36 | 1009.6 |
| 20260502234915 | 14 | 300 | 4.8 | 6.4 | 0.00 | 0.00 | 0.00 | 36 | 1009.4 |
| 20260502234411 | 14 | 266 | 3.2 | 4.8 | 0.00 | 0.00 | 0.00 | 37 | 1009.6 |
| 20260502233908 | 15 | 227 | 6.4 | 6.4 | 0.00 | 0.00 | 0.00 | 38 | 1009.5 |
| 20260502233403 | 15 | 298 | 1.6 | 1.6 | 0.00 | 0.00 | 0.00 | 36 | 1009.6 |
| 20260502232901 | 15 | 316 | 3.2 | 4.8 | 0.00 | 0.00 | 0.00 | 37 | 1009.4 |
| 20260502232357 | 15 | 278 | 3.2 | 4.8 | 0.00 | 0.00 | 0.00 | 36 | 1009.6 |
| 20260502231854 | 15 | 300 | 3.2 | 3.2 | 0.00 | 0.00 | 0.00 | 36 | 1009.2 |
| 20260502231352 | 15 | 277 | 4.8 | 4.8 | 0.00 | 0.00 | 0.00 | 36 | 1009.3 |
| 20260502230850 | 15 | 271 | 4.8 | 4.8 | 0.00 | 0.00 | 0.00 | 36 | 1009.2 |
| 20260502230348 | 15 | 302 | 1.6 | 3.2 | 0.00 | 0.00 | 0.00 | 36 | 1009.1 |
| 20260502225844 | 15 | 300 | 3.2 | 4.8 | 0.00 | 0.00 | 0.00 | 35 | 1009.3 |
| 20260502225340 | 15 | 293 | 3.2 | 4.8 | 0.00 | 0.00 | 0.00 | 36 | 1009.3 |
| 20260502224838 | 15 | 304 | 3.2 | 4.8 | 0.00 | 0.00 | 0.00 | 35 | 1009.0 |
| 20260502224334 | 15 | 301 | 1.6 | 1.6 | 0.00 | 0.00 | 0.00 | 37 | 1008.9 |
| 20260502223831 | 15 | 284 | 3.2 | 4.8 | 0.00 | 0.00 | 0.00 | 37 | 1009.1 |
| 20260502223329 | 15 | 293 | 3.2 | 3.2 | 0.00 | 0.00 | 0.00 | 37 | 1009.0 |
| 20260502222827 | 15 | 303 | 3.2 | 3.2 | 0.00 | 0.00 | 0.00 | 38 | 1009.1 |
| 20260502222324 | 15 | 252 | 4.8 | 6.4 | 0.00 | 0.00 | 0.00 | 38 | 1009.0 |
| 20260502221820 | 15 | 325 | 0.0 | 1.6 | 0.00 | 0.00 | 0.00 | 39 | 1009.2 |
| 20260502221316 | 16 | 242 | 3.2 | 4.8 | 0.00 | 0.00 | 0.00 | 38 | 1009.0 |
| 20260502220814 | 15 | 286 | 1.6 | 3.2 | 0.00 | 0.00 | 0.00 | 36 | 1009.1 |
| 20260502220309 | 16 | 256 | 4.8 | 4.8 | 0.00 | 0.00 | 0.00 | 35 | 1009.2 |
| 20260502215806 | 16 | 285 | 1.6 | 3.2 | 0.00 | 0.00 | 0.00 | 36 | 1009.1 |
| 20260502215305 | 16 | 309 | 0.0 | 0.0 | 0.00 | 0.00 | 0.00 | 35 | 1009.2 |
| 20260502214800 | 15 | 289 | 3.2 | 3.2 | 0.00 | 0.00 | 0.00 | 35 | 1009.2 |
| 20260502214256 | 15 | 299 | 3.2 | 3.2 | 0.00 | 0.00 | 0.00 | 35 | 1009.1 |
| 20260502213754 | 15 | 276 | 1.6 | 1.6 | 0.00 | 0.00 | 0.00 | 38 | 1009.1 |
| 20260502213251 | 16 | 302 | 1.6 | 3.2 | 0.00 | 0.00 | 0.00 | 35 | 1009.2 |
| 20260502212750 | 16 | 319 | 6.4 | 9.7 | 0.00 | 0.00 | 0.00 | 35 | 1009.0 |
| 20260502212248 | 15 | 288 | 9.7 | 11.3 | 0.00 | 0.00 | 0.00 | 35 | 1009.1 |
| 20260502211743 | 16 | 287 | 6.4 | 9.7 | 0.00 | 0.00 | 0.00 | 35 | 1008.8 |
| 20260502211241 | 16 | 305 | 0.0 | 0.0 | 0.00 | 0.00 | 0.00 | 36 | 1008.7 |
| 20260502210738 | 16 | 201 | 4.8 | 9.7 | 0.00 | 0.00 | 0.00 | 35 | 1008.9 |
| 20260502210235 | 16 | 294 | 6.4 | 6.4 | 0.00 | 0.00 | 0.00 | 35 | 1008.8 |
| 20260502205732 | 16 | 293 | 3.2 | 4.8 | 0.00 | 0.00 | 0.00 | 36 | 1009.0 |
| 20260502205228 | 15 | 284 | 3.2 | 3.2 | 0.00 | 0.00 | 0.00 | 37 | 1008.8 |
| 20260502204726 | 15 | 269 | 3.2 | 3.2 | 0.00 | 0.00 | 0.00 | 38 | 1008.7 |
| 20260502204223 | 16 | 200 | 4.8 | 6.4 | 0.00 | 0.00 | 0.00 | 37 | 1009.0 |
| 20260502203721 | 16 | 260 | 3.2 | 3.2 | 0.00 | 0.00 | 0.00 | 37 | 1008.9 |
| 20260502203218 | 16 | 299 | 1.6 | 1.6 | 0.00 | 0.00 | 0.00 | 37 | 1008.8 |
| 20260502202712 | 16 | 301 | 3.2 | 3.2 | 0.00 | 0.00 | 0.00 | 37 | 1008.9 |
| 20260502202211 | 15 | 290 | 1.6 | 3.2 | 0.00 | 0.00 | 0.00 | 39 | 1009.1 |
| 20260502201708 | 15 | 288 | 1.6 | 3.2 | 0.00 | 0.00 | 0.00 | 39 | 1008.9 |
| 20260502201204 | 16 | 297 | 1.6 | 1.6 | 0.00 | 0.00 | 0.00 | 38 | 1009.1 |
| 20260502200700 | 17 | 272 | 6.4 | 6.4 | 0.00 | 0.00 | 0.00 | 36 | 1009.4 |
| 20260502200156 | 17 | 307 | 1.6 | 1.6 | 0.00 | 0.00 | 0.00 | 37 | 1009.3 |
| 20260502195655 | 16 | 244 | 6.4 | 6.4 | 0.00 | 0.00 | 0.00 | 38 | 1009.2 |
| 20260502195151 | 16 | 305 | 3.2 | 4.8 | 0.00 | 0.00 | 0.00 | 40 | 1009.3 |
| 20260502194648 | 16 | 318 | 3.2 | 3.2 | 0.00 | 0.00 | 0.00 | 40 | 1009.5 |
| 20260502194144 | 16 | 283 | 6.4 | 6.4 | 0.00 | 0.00 | 0.00 | 41 | 1009.7 |
| 20260502193641 | 15 | 299 | 3.2 | 4.8 | 0.00 | 0.00 | 0.00 | 43 | 1009.7 |
| 20260502193138 | 15 | 293 | 3.2 | 3.2 | 0.00 | 0.00 | 0.00 | 44 | 1009.7 |
| 20260502192633 | 16 | 283 | 4.8 | 4.8 | 0.00 | 0.00 | 0.00 | 42 | 1009.8 |
| 20260502192131 | 16 | 191 | 4.8 | 9.7 | 0.00 | 0.00 | 0.00 | 44 | 1009.9 |
| 20260502191628 | 16 | 314 | 3.2 | 6.4 | 0.00 | 0.00 | 0.00 | 44 | 1010.1 |
| 20260502191125 | 16 | 259 | 3.2 | 3.2 | 0.00 | 0.00 | 0.00 | 43 | 1010.1 |
| 20260502190623 | 16 | 277 | 3.2 | 4.8 | 0.00 | 0.00 | 0.00 | 43 | 1010.1 |
| 20260502190120 | 16 | 311 | 1.6 | 3.2 | 0.00 | 0.00 | 0.00 | 44 | 1010.3 |
| 20260502185615 | 16 | 280 | 3.2 | 4.8 | 0.00 | 0.00 | 0.00 | 44 | 1010.1 |
| 20260502185112 | 16 | 272 | 1.6 | 1.6 | 0.00 | 0.00 | 0.00 | 44 | 1010.1 |
| 20260502184608 | 16 | 283 | 1.6 | 1.6 | 0.00 | 0.00 | 0.00 | 44 | 1010.4 |
| 20260502184103 | 16 | 278 | 8.0 | 9.7 | 0.00 | 0.00 | 0.00 | 44 | 1010.3 |
| 20260502183600 | 16 | 345 | 1.6 | 3.2 | 0.00 | 0.00 | 0.00 | 46 | 1010.5 |
| 20260502183056 | 16 | 186 | 4.8 | 6.4 | 0.00 | 0.00 | 0.00 | 46 | 1010.5 |
| 20260502182552 | 15 | 253 | 6.4 | 9.7 | 0.00 | 0.00 | 0.00 | 47 | 1010.4 |
| 20260502182048 | 15 | 89 | 8.0 | 11.3 | 0.00 | 0.00 | 0.00 | 46 | 1010.4 |
| 20260502181546 | 16 | 221 | 4.8 | 9.7 | 0.00 | 0.00 | 0.00 | 47 | 1010.2 |
| 20260502181044 | 16 | 187 | 6.4 | 11.3 | 0.00 | 0.00 | 0.00 | 46 | 1010.7 |
| 20260502180540 | 15 | 289 | 1.6 | 3.2 | 0.00 | 0.00 | 0.00 | 48 | 1010.4 |
| 20260502170454 | 15 | 138 | 1.6 | 3.2 | 0.00 | 0.00 | 0.00 | 52 | 1010.8 |
| 20260502163937 | 15 | 253 | 4.8 | 6.4 | 0.00 | 0.00 | 0.00 | 55 | 1011.5 |
| 20260502163433 | 14 | 312 | 0.0 | 1.6 | 0.00 | 0.00 | 0.00 | 58 | 1011.1 |
| 20260502162931 | 14 | 289 | 1.6 | 3.2 | 0.00 | 0.00 | 0.00 | 58 | 1011.4 |
| 20260502162428 | 14 | 270 | 4.8 | 4.8 | 0.00 | 0.00 | 0.00 | 58 | 1011.4 |
| 20260502161925 | 14 | 229 | 1.6 | 1.6 | 0.00 | 0.00 | 0.00 | 61 | 1011.4 |
| 20260502161421 | 13 | 290 | 3.2 | 4.8 | 0.00 | 0.00 | 0.00 | 63 | 1011.3 |
| 20260502160919 | 13 | 318 | 4.8 | 6.4 | 0.00 | 0.00 | 0.00 | 64 | 1011.2 |
| 20260502160417 | 12 | 281 | 3.2 | 4.8 | 0.00 | 0.00 | 0.00 | 67 | 1011.2 |
| 20260502151855 | 12 | 303 | 1.6 | 3.2 | 0.00 | 0.00 | 0.00 | 68 | 1011.4 |
| 20260502151351 | 12 | 298 | 3.2 | 3.2 | 0.00 | 0.00 | 0.00 | 67 | 1011.3 |
| 20260502150849 | 13 | 291 | 1.6 | 3.2 | 0.00 | 0.00 | 0.00 | 68 | 1011.4 |
| 20260502150345 | 12 | 277 | 3.2 | 3.2 | 0.00 | 0.00 | 0.00 | 69 | 1011.5 |
| 20260502130734 | 11 | 240 | 4.8 | 6.4 | 0.00 | 0.00 | 0.00 | 75 | 1011.6 |
| 20260502130231 | 11 | 299 | 0.0 | 1.6 | 0.00 | 0.00 | 0.00 | 78 | 1011.6 |
| 20260502123717 | 11 | 283 | 1.6 | 1.6 | 0.00 | 0.00 | 0.00 | 76 | 1011.8 |
| 20260502123214 | 12 | 280 | 0.0 | 0.0 | 0.00 | 0.00 | 0.00 | 77 | 1011.6 |
| 20260502122710 | 11 | 256 | 1.6 | 3.2 | 0.00 | 0.00 | 0.00 | 78 | 1011.5 |
| 20260502122207 | 11 | 298 | 1.6 | 1.6 | 0.00 | 0.00 | 0.00 | 78 | 1011.4 |
| 20260502121705 | 12 | 242 | 3.2 | 3.2 | 0.00 | 0.00 | 0.00 | 77 | 1011.3 |
| 20260502121203 | 11 | 307 | 0.0 | 0.0 | 0.00 | 0.00 | 0.00 | 77 | 1011.3 |
| 20260502120659 | 12 | 291 | 0.0 | 0.0 | 0.00 | 0.00 | 0.00 | 76 | 1011.5 |
| 20260502120156 | 11 | 244 | 1.6 | 3.2 | 0.00 | 0.00 | 0.00 | 76 | 1011.5 |
| 20260502115654 | 11 | 305 | 0.0 | 0.0 | 0.00 | 0.00 | 0.00 | 76 | 1011.3 |
| 20260502115150 | 11 | 309 | 0.0 | 0.0 | 0.00 | 0.00 | 0.00 | 79 | 1011.1 |
| 20260502114646 | 11 | 307 | 0.0 | 0.0 | 0.00 | 0.00 | 0.00 | 77 | 1011.3 |
| 20260502114143 | 11 | 305 | 0.0 | 0.0 | 0.00 | 0.00 | 0.00 | 80 | 1011.5 |
| 20260502113641 | 11 | 305 | 0.0 | 0.0 | 0.00 | 0.00 | 0.00 | 77 | 1011.3 |
| 20260502113139 | 11 | 295 | 0.0 | 0.0 | 0.00 | 0.00 | 0.00 | 77 | 1011.5 |
| 20260502112636 | 11 | 305 | 0.0 | 0.0 | 0.00 | 0.00 | 0.00 | 80 | 1011.3 |
| 20260502112133 | 11 | 302 | 0.0 | 0.0 | 0.00 | 0.00 | 0.00 | 82 | 1011.2 |
| 20260502111631 | 11 | 300 | 0.0 | 0.0 | 0.00 | 0.00 | 0.00 | 81 | 1011.3 |
| 20260502111128 | 11 | 284 | 0.0 | 1.6 | 0.00 | 0.00 | 0.00 | 83 | 1011.2 |
| 20260502110626 | 11 | 306 | 0.0 | 0.0 | 0.00 | 0.00 | 0.00 | 82 | 1011.1 |
| 20260502110123 | 11 | 302 | 0.0 | 0.0 | 0.00 | 0.00 | 0.00 | 83 | 1011.0 |
| 20260502105621 | 11 | 301 | 0.0 | 0.0 | 0.00 | 0.00 | 0.00 | 83 | 1011.1 |
| 20260502105117 | 11 | 306 | 0.0 | 0.0 | 0.00 | 0.00 | 0.00 | 84 | 1011.1 |
| 20260502104615 | 11 | 307 | 0.0 | 0.0 | 0.00 | 0.00 | 0.00 | 85 | 1011.1 |
| 20260502104112 | 10 | 309 | 0.0 | 0.0 | 0.00 | 0.00 | 0.00 | 84 | 1010.6 |
| 20260502103609 | 10 | 305 | 0.0 | 0.0 | 0.00 | 0.00 | 0.00 | 84 | 1010.5 |
| 20260502103108 | 10 | 306 | 0.0 | 0.0 | 0.00 | 0.00 | 0.00 | 85 | 1010.6 |
| 20260502102604 | 10 | 306 | 0.0 | 0.0 | 0.00 | 0.00 | 0.00 | 85 | 1010.7 |
| 20260502102101 | 10 | 299 | 0.0 | 0.0 | 0.00 | 0.00 | 0.00 | 87 | 1010.6 |
| 20260502101559 | 10 | 308 | 0.0 | 0.0 | 0.00 | 0.00 | 0.00 | 87 | 1010.4 |
| 20260502101057 | 10 | 305 | 0.0 | 0.0 | 0.00 | 0.00 | 0.00 | 87 | 1010.5 |
| 20260502100555 | 10 | 305 | 0.0 | 0.0 | 0.00 | 0.00 | 0.00 | 86 | 1010.6 |
| 20260502091530 | 11 | 219 | 1.6 | 4.8 | 0.00 | 0.00 | 0.00 | 81 | 1010.9 |
| 20260502091027 | 11 | 318 | 0.0 | 1.6 | 0.00 | 0.00 | 0.00 | 82 | 1010.9 |
| 20260502090524 | 11 | 243 | 3.2 | 4.8 | 0.00 | 0.00 | 0.00 | 81 | 1011.0 |
| 20260502071419 | 11 | 253 | 4.8 | 4.8 | 0.00 | 0.00 | 0.00 | 74 | 1010.8 |
| 20260502070916 | 11 | 198 | 1.6 | 3.2 | 0.00 | 0.00 | 0.00 | 74 | 1010.9 |
| 20260502070414 | 11 | 301 | 6.4 | 9.7 | 0.00 | 0.00 | 0.00 | 73 | 1010.7 |
| 20260502065912 | 11 | 307 | 3.2 | 3.2 | 0.00 | 0.00 | 0.00 | 73 | 1010.7 |
| 20260502065411 | 11 | 154 | 8.0 | 9.7 | 0.00 | 0.00 | 0.00 | 72 | 1010.6 |
| 20260502064908 | 12 | 305 | 1.6 | 4.8 | 0.00 | 0.00 | 0.00 | 71 | 1010.7 |
| 20260502064406 | 12 | 118 | 6.4 | 6.4 | 0.00 | 0.00 | 0.00 | 71 | 1011.0 |
| 20260502063903 | 12 | 296 | 1.6 | 1.6 | 0.00 | 0.00 | 0.00 | 70 | 1011.0 |
| 20260502063400 | 12 | 120 | 6.4 | 11.3 | 0.00 | 0.00 | 0.00 | 70 | 1011.0 |
| 20260502062858 | 12 | 260 | 3.2 | 3.2 | 0.00 | 0.00 | 0.00 | 70 | 1010.8 |
| 20260502062355 | 12 | 197 | 6.4 | 6.4 | 0.00 | 0.00 | 0.00 | 69 | 1011.2 |
| 20260502061854 | 12 | 202 | 3.2 | 3.2 | 0.00 | 0.00 | 0.00 | 69 | 1011.2 |
| 20260502061351 | 12 | 262 | 3.2 | 4.8 | 0.00 | 0.00 | 0.00 | 69 | 1011.2 |
| 20260502060847 | 12 | 251 | 1.6 | 3.2 | 0.00 | 0.00 | 0.00 | 70 | 1011.3 |
| 20260502060342 | 12 | 182 | 3.2 | 6.4 | 0.00 | 0.00 | 0.00 | 69 | 1011.3 |
| 20260502055840 | 12 | 180 | 8.0 | 14.5 | 0.00 | 0.00 | 0.00 | 68 | 1011.1 |
| 20260502055338 | 12 | 234 | 3.2 | 4.8 | 0.00 | 0.00 | 0.00 | 68 | 1011.0 |
| 20260502054837 | 12 | 200 | 1.6 | 3.2 | 0.00 | 0.00 | 0.00 | 68 | 1011.0 |
| 20260502054334 | 12 | 198 | 1.6 | 3.2 | 0.00 | 0.00 | 0.00 | 68 | 1011.1 |
| 20260502053831 | 12 | 195 | 4.8 | 6.4 | 0.00 | 0.00 | 0.00 | 67 | 1010.9 |
| 20260502053329 | 12 | 323 | 1.6 | 3.2 | 0.00 | 0.00 | 0.00 | 66 | 1011.0 |
| 20260502052826 | 12 | 107 | 8.0 | 11.3 | 0.00 | 0.00 | 0.00 | 66 | 1011.1 |
| 20260502052324 | 12 | 192 | 6.4 | 9.7 | 0.00 | 0.00 | 0.00 | 65 | 1011.0 |
| 20260502051821 | 12 | 195 | 3.2 | 6.4 | 0.00 | 0.00 | 0.00 | 66 | 1011.2 |
| 20260502051321 | 12 | 169 | 4.8 | 4.8 | 0.00 | 0.00 | 0.00 | 66 | 1011.1 |
| 20260502050816 | 12 | 177 | 4.8 | 9.7 | 0.00 | 0.00 | 0.00 | 66 | 1011.1 |
| 20260502050313 | 12 | 329 | 4.8 | 6.4 | 0.00 | 0.00 | 0.00 | 66 | 1010.9 |
| 20260502045810 | 12 | 207 | 3.2 | 3.2 | 0.00 | 0.00 | 0.00 | 66 | 1010.9 |
| 20260502045306 | 12 | 191 | 6.4 | 9.7 | 0.00 | 0.00 | 0.00 | 66 | 1011.2 |
| 20260502044804 | 12 | 244 | 3.2 | 4.8 | 0.00 | 0.00 | 0.00 | 66 | 1010.9 |
| 20260502044259 | 12 | 298 | 1.6 | 3.2 | 0.00 | 0.00 | 0.00 | 66 | 1010.7 |
| 20260502043757 | 12 | 245 | 1.6 | 3.2 | 0.00 | 0.00 | 0.00 | 66 | 1010.8 |
| 20260502043254 | 12 | 287 | 3.2 | 3.2 | 0.00 | 0.00 | 0.00 | 67 | 1010.9 |
| 20260502042754 | 12 | 171 | 4.8 | 4.8 | 0.00 | 0.00 | 0.00 | 66 | 1011.1 |
| 20260502042251 | 12 | 144 | 6.4 | 9.7 | 0.00 | 0.00 | 0.00 | 67 | 1011.0 |
| 20260502041749 | 12 | 299 | 3.2 | 4.8 | 0.00 | 0.00 | 0.00 | 67 | 1011.0 |
| 20260502041246 | 12 | 219 | 8.0 | 12.9 | 0.00 | 0.00 | 0.00 | 67 | 1011.2 |
| 20260502040743 | 12 | 173 | 4.8 | 4.8 | 0.00 | 0.00 | 0.00 | 68 | 1011.2 |
| 20260502040240 | 12 | 303 | 1.6 | 3.2 | 0.00 | 0.00 | 0.00 | 70 | 1011.1 |
| 20260502035735 | 12 | 176 | 6.4 | 6.4 | 0.00 | 0.00 | 0.00 | 70 | 1011.1 |
| 20260502035233 | 12 | 178 | 8.0 | 12.9 | 0.00 | 0.00 | 0.00 | 71 | 1011.1 |
| 20260502034730 | 12 | 141 | 8.0 | 11.3 | 0.00 | 0.00 | 0.00 | 70 | 1011.2 |
| 20260502034228 | 12 | 120 | 4.8 | 9.7 | 0.00 | 0.00 | 0.00 | 69 | 1010.8 |
| 20260502033726 | 12 | 279 | 4.8 | 6.4 | 0.00 | 0.00 | 0.00 | 69 | 1011.1 |
| 20260502033223 | 12 | 144 | 8.0 | 11.3 | 0.00 | 0.00 | 0.00 | 69 | 1011.0 |